W5HRH Weather Reports


Display with metric or nautical units.
time (UTC)temp
F
wind
direction
speed
MPH
gust
MPH
rain 1hr
in
rain 24hr
in
rain mn
in
humidity
%
barometer
mb
20260505211509 83 201 2.0 13.0 0.00 0.00 0.00 76 1009.0
20260505211009 83 203 7.0 15.0 0.00 0.00 0.00 76 1009.1
20260505210510 83 148 3.0 10.0 0.00 0.00 0.00 77 1009.2
20260505210008 83 186 3.0 8.0 0.00 0.00 0.00 78 1009.2
20260505205508 83 237 3.0 12.0 0.00 0.00 0.00 77 1009.2
20260505205009 83 189 6.0 12.0 0.00 0.00 0.00 77 1009.3
20260505204508 83 184 3.0 8.0 0.00 0.00 0.00 77 1009.4
20260505204010 83 229 3.0 7.0 0.00 0.00 0.00 77 1009.3
20260505203506 83 228 2.0 9.0 0.00 0.00 0.00 77 1009.2
20260505203015 83 206 3.0 14.0 0.00 0.00 0.00 78 1009.6
20260505202505 83 138 4.0 13.0 0.00 0.00 0.00 77 1009.7
20260505202004 83 182 5.0 13.0 0.00 0.00 0.00 77 1009.7
20260505201502 83 220 2.0 10.0 0.00 0.00 0.00 77 1010.0
20260505201004 83 198 3.0 10.0 0.00 0.00 0.00 77 1010.0
20260505200502 83 177 2.0 9.0 0.00 0.00 0.00 78 1010.0
20260505200002 83 186 4.0 11.0 0.00 0.00 0.00 78 1010.0
20260505195503 83 188 5.0 14.0 0.00 0.00 0.00 77 1010.2
20260505195100 83 213 2.0 14.0 0.00 0.00 0.00 78 1010.2
20260505194608 83 251 4.0 10.0 0.00 0.00 0.00 78 1010.3
20260505194059 83 189 5.0 11.0 0.00 0.00 0.00 78 1010.3
20260505193558 82 205 3.0 10.0 0.00 0.00 0.00 79 1010.4
20260505193059 82 196 2.0 9.0 0.00 0.00 0.00 79 1010.4
20260505192557 82 183 1.0 12.0 0.00 0.00 0.00 80 1010.5
20260505192056 82 180 5.0 12.0 0.00 0.00 0.00 80 1010.5
20260505191557 81 180 3.0 11.0 0.00 0.00 0.00 81 1010.6
20260505191056 81 230 4.0 9.0 0.00 0.00 0.00 80 1010.6
20260505190600 82 184 2.0 10.0 0.00 0.00 0.00 80 1010.6
20260505190055 82 207 5.0 10.0 0.00 0.00 0.00 79 1010.5
20260505185555 82 238 4.0 9.0 0.00 0.00 0.00 80 1010.6
20260505185054 81 174 1.0 14.0 0.00 0.00 0.00 81 1010.7
20260505184554 81 199 4.0 14.0 0.00 0.00 0.00 81 1010.7
20260505184053 81 193 1.0 9.0 0.00 0.00 0.00 81 1010.8
20260505183555 81 227 3.0 14.0 0.00 0.00 0.00 81 1010.7
20260505183054 80 163 2.0 7.0 0.00 0.00 0.00 81 1010.8
20260505182551 80 198 3.0 9.0 0.00 0.00 0.00 81 1010.8
20260505182052 81 189 3.0 10.0 0.00 0.00 0.00 81 1010.8
20260505181552 81 190 3.0 12.0 0.00 0.00 0.00 81 1010.8
20260505181051 81 174 2.0 14.0 0.00 0.00 0.00 82 1010.8
20260505180553 80 217 4.0 15.0 0.00 0.00 0.00 82 1010.9
20260505180104 80 180 3.0 8.0 0.00 0.00 0.00 82 1011.1
20260505175548 80 240 3.0 9.0 0.00 0.00 0.00 82 1011.1
20260505175048 80 184 4.0 14.0 0.00 0.00 0.00 82 1011.2
20260505174600 80 211 5.0 14.0 0.00 0.00 0.00 82 1011.2
20260505174049 80 227 1.0 15.0 0.00 0.00 0.00 82 1011.2
20260505173547 80 191 5.0 15.0 0.00 0.00 0.00 82 1011.3
20260505173047 80 194 2.0 6.0 0.00 0.00 0.00 83 1011.3
20260505172546 79 180 2.0 6.0 0.00 0.00 0.00 83 1011.4
20260505172045 79 198 2.0 6.0 0.00 0.00 0.00 83 1011.4
20260505171546 79 171 2.0 12.0 0.00 0.00 0.00 84 1011.3
20260505171048 79 188 1.0 12.0 0.00 0.00 0.00 83 1011.4
20260505170547 79 186 2.0 9.0 0.00 0.00 0.00 83 1011.4
20260505170044 79 192 3.0 12.0 0.00 0.00 0.00 84 1011.7
20260505165543 79 197 3.0 12.0 0.00 0.00 0.00 84 1011.7
20260505165046 79 184 1.0 9.0 0.00 0.00 0.00 85 1011.7
20260505164547 78 188 3.0 12.0 0.00 0.00 0.00 85 1011.6
20260505164043 78 184 3.0 12.0 0.00 0.00 0.00 85 1011.7
20260505163543 78 196 4.0 8.0 0.00 0.00 0.00 84 1011.7
20260505163041 78 169 2.0 9.0 0.00 0.00 0.00 84 1011.5
20260505162541 78 180 2.0 8.0 0.00 0.00 0.00 84 1011.5
20260505162041 78 192 2.0 6.0 0.00 0.00 0.00 84 1011.5
20260505161540 78 234 1.0 10.0 0.00 0.00 0.00 85 1011.4
20260505161042 78 190 4.0 10.0 0.00 0.00 0.00 84 1011.5
20260505160540 78 175 2.0 11.0 0.00 0.00 0.00 84 1011.3
20260505153036 77 196 4.0 9.0 0.00 0.00 0.00 86 1011.2
20260505152535 77 182 4.0 9.0 0.00 0.00 0.00 86 1011.1
20260505152035 77 198 1.0 8.0 0.00 0.00 0.00 86 1011.1
20260505151535 77 196 1.0 9.0 0.00 0.00 0.00 86 1011.1
20260505151035 77 180 1.0 9.0 0.00 0.00 0.00 86 1011.1
20260505150534 77 175 1.0 9.0 0.00 0.00 0.00 86 1011.1
20260505140528 76 191 5.0 8.0 0.00 0.00 0.00 88 1011.0
20260505125011 74 146 4.0 7.0 0.00 0.00 0.00 90 1010.8
20260505124509 73 163 3.0 7.0 0.00 0.00 0.00 90 1010.8
20260505124007 73 186 2.0 7.0 0.00 0.00 0.00 90 1010.8
20260505123505 73 175 3.0 7.0 0.00 0.00 0.00 90 1010.8
20260505123004 73 152 3.0 7.0 0.00 0.00 0.00 90 1010.8
20260505122503 73 142 1.0 6.0 0.00 0.00 0.00 90 1010.7
20260505122002 73 153 1.0 6.0 0.00 0.00 0.00 90 1010.7
20260505121603 73 169 3.0 7.0 0.00 0.00 0.00 90 1010.6
20260505121059 73 175 1.0 6.0 0.00 0.00 0.00 90 1010.4
20260505120557 73 213 3.0 7.0 0.00 0.00 0.00 90 1010.3
20260505120057 73 171 2.0 7.0 0.00 0.00 0.00 90 1010.3
20260505115555 73 211 3.0 8.0 0.00 0.00 0.00 90 1010.2
20260505115053 73 182 1.0 7.0 0.00 0.00 0.00 90 1010.2
20260505114552 72 172 3.0 7.0 0.00 0.00 0.00 90 1010.4
20260505114051 72 169 1.0 4.0 0.00 0.00 0.00 90 1010.7
20260505113549 72 196 1.0 4.0 0.00 0.00 0.00 90 1010.6
20260505113059 72 184 1.0 6.0 0.00 0.00 0.00 90 1010.6
20260505112549 72 153 3.0 7.0 0.00 0.00 0.00 90 1010.6
20260505112049 72 178 3.0 7.0 0.00 0.00 0.00 90 1010.5
20260505111549 72 175 2.0 8.0 0.00 0.00 0.00 90 1010.5
20260505111049 72 198 3.0 8.0 0.00 0.00 0.00 90 1010.3
20260505110550 72 174 2.0 8.0 0.00 0.00 0.00 90 1010.3
20260505102045 72 165 1.0 6.0 0.00 0.00 0.00 89 1010.4
20260505101545 72 197 1.0 8.0 0.00 0.00 0.00 89 1010.5
20260505101043 72 165 2.0 8.0 0.00 0.00 0.00 89 1010.5
20260505100542 72 164 3.0 7.0 0.00 0.00 0.00 89 1010.5
20260505100040 72 162 1.0 5.0 0.00 0.00 0.00 89 1010.7
20260505095538 72 173 1.0 8.0 0.00 0.00 0.00 89 1010.6
20260505095037 72 162 2.0 8.0 0.00 0.00 0.00 89 1010.5
20260505094536 72 158 2.0 5.0 0.00 0.00 0.00 89 1010.4
20260505094034 72 178 1.0 8.0 0.00 0.00 0.00 89 1010.4
20260505093532 72 189 2.0 8.0 0.00 0.00 0.00 89 1010.5
20260505093036 72 180 3.0 6.0 0.00 0.00 0.00 89 1010.5
20260505092530 72 184 2.0 6.0 0.00 0.00 0.00 89 1010.6
20260505092029 72 187 2.0 7.0 0.00 0.00 0.00 89 1010.7
20260505091527 72 168 1.0 8.0 0.00 0.00 0.00 89 1010.7
20260505091026 72 179 4.0 8.0 0.00 0.00 0.00 89 1010.8
20260505090525 72 206 3.0 6.0 0.00 0.00 0.00 89 1010.9
20260505090026 72 173 3.0 6.0 0.00 0.00 0.00 89 1010.8
20260505085522 72 175 0.0 5.0 0.00 0.00 0.00 89 1010.9
20260505085022 72 184 2.0 5.0 0.00 0.00 0.00 89 1010.7
20260505084519 72 133 1.0 6.0 0.00 0.00 0.00 89 1010.7
20260505084019 72 180 2.0 6.0 0.00 0.00 0.00 89 1010.8
20260505083517 72 150 1.0 8.0 0.00 0.00 0.00 88 1010.9
20260505083024 72 183 3.0 7.0 0.00 0.00 0.00 88 1011.0
20260505082519 72 167 2.0 6.0 0.00 0.00 0.00 88 1010.9
20260505082016 72 179 2.0 6.0 0.00 0.00 0.00 88 1011.0
20260505081516 72 185 1.0 7.0 0.00 0.00 0.00 88 1011.1
20260505081015 72 152 3.0 7.0 0.00 0.00 0.00 88 1011.2
20260505080515 72 181 3.0 9.0 0.00 0.00 0.00 88 1011.1
20260505080014 72 164 3.0 9.0 0.00 0.00 0.00 88 1011.2
20260505075515 72 114 2.0 7.0 0.00 0.00 0.00 87 1011.3
20260505075017 72 184 3.0 7.0 0.00 0.00 0.00 87 1011.2
20260505074513 72 187 4.0 9.0 0.00 0.00 0.00 87 1011.2
20260505074113 72 180 1.0 9.0 0.00 0.00 0.00 87 1011.3
20260505073513 71 196 3.0 7.0 0.00 0.00 0.00 87 1011.2
20260505073012 71 161 1.0 6.0 0.00 0.00 0.00 87 1011.3
20260505072519 71 150 2.0 6.0 0.00 0.00 0.00 87 1011.3
20260505072011 71 180 3.0 5.0 0.00 0.00 0.00 87 1011.5
20260505071511 71 172 2.0 5.0 0.00 0.00 0.00 87 1011.4
20260505071010 71 159 2.0 5.0 0.00 0.00 0.00 87 1011.5
20260505070514 71 158 1.0 7.0 0.00 0.00 0.00 86 1011.3
20260505070008 71 196 2.0 7.0 0.00 0.00 0.00 86 1011.4
20260505065509 71 159 2.0 7.0 0.00 0.00 0.00 86 1011.5
20260505065008 71 177 1.0 6.0 0.00 0.00 0.00 86 1011.7
20260505064508 71 182 2.0 6.0 0.00 0.00 0.00 86 1011.7
20260505064006 71 176 3.0 7.0 0.00 0.00 0.00 86 1011.8
20260505063505 71 186 2.0 6.0 0.00 0.00 0.00 86 1011.8
20260505063004 71 159 2.0 9.0 0.00 0.00 0.00 85 1012.0
20260505062506 71 162 4.0 9.0 0.00 0.00 0.00 85 1012.1
20260505062003 71 134 1.0 7.0 0.00 0.00 0.00 85 1012.2
20260505061505 71 159 1.0 9.0 0.00 0.00 0.00 85 1012.3
20260505061002 71 134 2.0 9.0 0.00 0.00 0.00 85 1012.5
20260505060500 71 180 1.0 8.0 0.00 0.00 0.00 85 1012.3
20260505060105 71 186 2.0 8.0 0.00 0.00 0.00 85 1012.2
20260505055600 71 182 2.0 10.0 0.00 0.00 0.00 84 1012.3
20260505055100 71 182 4.0 10.0 0.00 0.00 0.00 84 1012.3
20260505054610 71 136 3.0 8.0 0.00 0.00 0.00 84 1012.2
20260505054057 71 148 2.0 6.0 0.00 0.00 0.00 84 1012.3
20260505053557 71 153 3.0 10.0 0.00 0.00 0.00 83 1012.5
20260505053058 72 171 3.0 10.0 0.00 0.00 0.00 83 1012.4
20260505052555 72 174 3.0 8.0 0.00 0.00 0.00 83 1012.6
20260505052055 72 141 2.0 7.0 0.00 0.00 0.00 83 1012.7
20260505051612 72 184 4.0 8.0 0.00 0.00 0.00 83 1012.6
20260505051055 72 185 3.0 10.0 0.00 0.00 0.00 83 1012.6
20260505050553 72 182 4.0 10.0 0.00 0.00 0.00 83 1012.6
20260505041553 72 250 5.0 9.0 0.00 0.00 0.00 81 1012.5
20260505041051 72 157 4.0 10.0 0.00 0.00 0.00 80 1012.5
20260505040551 73 175 2.0 11.0 0.00 0.00 0.00 80 1012.8
20260505040051 73 148 5.0 11.0 0.00 0.00 0.00 80 1013.0
20260505035550 73 180 4.0 10.0 0.00 0.00 0.00 80 1012.9
20260505035050 73 182 4.0 10.0 0.00 0.00 0.00 79 1012.8
20260505034550 73 161 5.0 11.0 0.00 0.00 0.00 79 1013.1
20260505034049 73 141 5.0 14.0 0.00 0.00 0.00 79 1013.1
20260505033550 73 187 4.0 14.0 0.00 0.00 0.00 79 1013.0
20260505033049 73 169 4.0 10.0 0.00 0.00 0.00 79 1013.2
20260505032549 73 173 3.0 11.0 0.00 0.00 0.00 79 1013.1
20260505032048 73 174 4.0 11.0 0.00 0.00 0.00 78 1013.0
20260505031555 73 184 5.0 16.0 0.00 0.00 0.00 78 1012.9
20260505031049 73 239 6.0 16.0 0.00 0.00 0.00 78 1012.9
20260505030548 73 130 5.0 12.0 0.00 0.00 0.00 78 1013.0
20260505030048 74 171 5.0 12.0 0.00 0.00 0.00 78 1013.0
20260505025548 74 175 4.0 10.0 0.00 0.00 0.00 78 1013.0
20260505025047 74 148 5.0 10.0 0.00 0.00 0.00 78 1013.1
20260505024553 74 209 5.0 9.0 0.00 0.00 0.00 77 1013.2
20260505024047 74 146 4.0 9.0 0.00 0.00 0.00 77 1012.9
20260505023547 74 152 5.0 12.0 0.00 0.00 0.00 77 1012.9
20260505023047 74 210 4.0 12.0 0.00 0.00 0.00 77 1012.9
20260505022548 74 153 3.0 10.0 0.00 0.00 0.00 77 1012.8
20260505022047 74 182 3.0 8.0 0.00 0.00 0.00 77 1012.7
20260505021550 74 159 4.0 9.0 0.00 0.00 0.00 77 1012.8
20260505021048 74 192 5.0 11.0 0.00 0.00 0.00 77 1012.8
20260505020546 74 174 4.0 11.0 0.00 0.00 0.00 77 1012.7
20260505020050 74 111 3.0 16.0 0.00 0.00 0.00 76 1012.6
20260505015546 74 199 7.0 16.0 0.00 0.00 0.00 76 1012.7
20260505015049 75 211 2.0 14.0 0.00 0.00 0.00 76 1012.5
20260505014551 75 144 5.0 14.0 0.00 0.00 0.00 76 1012.6
20260505014044 75 182 3.0 11.0 0.00 0.00 0.00 76 1012.5
20260505013544 75 191 4.0 11.0 0.00 0.00 0.00 75 1012.4
20260505013045 75 213 4.0 13.0 0.00 0.00 0.00 75 1012.5
20260505012544 75 167 6.0 11.0 0.00 0.00 0.00 75 1012.5
20260505012044 75 166 2.0 10.0 0.00 0.00 0.00 74 1012.3
20260505011544 75 160 3.0 10.0 0.00 0.00 0.00 74 1012.3
20260505011044 75 150 4.0 9.0 0.00 0.00 0.00 74 1012.4
20260505010543 75 149 3.0 10.0 0.00 0.00 0.00 73 1012.5
20260505010053 76 168 3.0 7.0 0.00 0.00 0.00 73 1012.4
20260505005542 76 157 3.0 8.0 0.00 0.00 0.00 73 1012.3
20260505005042 76 155 4.0 10.0 0.00 0.00 0.00 73 1012.3
20260505004543 76 160 4.0 10.0 0.00 0.00 0.00 73 1012.3
20260505004040 76 188 2.0 9.0 0.00 0.00 0.00 73 1012.2
20260505003540 76 115 4.0 9.0 0.00 0.00 0.00 72 1012.2
20260505003040 76 177 4.0 9.0 0.00 0.00 0.00 72 1012.2
20260505002540 77 181 1.0 7.0 0.00 0.00 0.00 72 1012.2
20260505002040 77 142 4.0 8.0 0.00 0.00 0.00 71 1012.2
20260505001540 77 162 4.0 8.0 0.00 0.00 0.00 71 1012.2
20260505001042 77 173 2.0 8.0 0.00 0.00 0.00 71 1012.3
20260505000539 77 181 3.0 11.0 0.00 0.00 0.00 71 1012.2
20260505000045 77 178 5.0 12.0 0.00 0.00 0.00 71 1012.2
20260504235539 77 126 5.0 14.0 0.00 0.00 0.00 71 1012.1
20260504235038 77 131 5.0 14.0 0.00 0.00 0.00 70 1012.3
20260504234537 77 188 3.0 14.0 0.00 0.00 0.00 70 1012.3
20260504234036 77 183 5.0 14.0 0.00 0.00 0.00 70 1012.5
20260504233540 77 190 4.0 10.0 0.00 0.00 0.00 70 1012.6
20260504233042 77 182 5.0 10.0 0.00 0.00 0.00 70 1012.6
20260504232536 77 241 3.0 9.0 0.00 0.00 0.00 70 1012.7
20260504232035 78 144 4.0 10.0 0.00 0.00 0.00 69 1012.6
20260504231541 78 167 5.0 10.0 0.00 0.00 0.00 69 1012.6
20260504231034 78 188 5.0 10.0 0.00 0.00 0.00 69 1012.8
20260504230534 78 140 4.0 13.0 0.00 0.00 0.00 69 1012.8
20260504230041 78 167 4.0 13.0 0.00 0.00 0.00 68 1012.7
20260504225537 78 140 3.0 10.0 0.00 0.00 0.00 69 1012.9
20260504225034 78 200 5.0 9.0 0.00 0.00 0.00 68 1013.0
20260504224532 78 167 1.0 12.0 0.00 0.00 0.00 68 1012.9
20260504224031 78 195 4.0 12.0 0.00 0.00 0.00 68 1013.0
20260504223530 78 190 3.0 10.0 0.00 0.00 0.00 68 1013.0
20260504223031 78 195 4.0 13.0 0.00 0.00 0.00 68 1013.0
20260504222529 79 233 5.0 14.0 0.00 0.00 0.00 68 1013.0
20260504222029 79 219 5.0 12.0 0.00 0.00 0.00 67 1013.2
20260504221529 79 155 4.0 12.0 0.00 0.00 0.00 66 1013.3
20260504221028 79 185 5.0 12.0 0.00 0.00 0.00 66 1013.3
20260504220528 79 148 2.0 10.0 0.00 0.00 0.00 66 1013.4
20260504220030 79 169 3.0 10.0 0.00 0.00 0.00 65 1013.5
20260504215527 79 227 3.0 8.0 0.00 0.00 0.00 65 1013.4
20260504215027 79 190 4.0 10.0 0.00 0.00 0.00 64 1013.5
20260504214528 79 160 4.0 12.0 0.00 0.00 0.00 64 1013.5
20260504214030 79 192 5.0 10.0 0.00 0.00 0.00 64 1013.5
20260504213526 80 203 5.0 10.0 0.00 0.00 0.00 64 1013.6
20260504213025 80 201 5.0 12.0 0.00 0.00 0.00 63 1013.7
20260504212525 80 186 4.0 13.0 0.00 0.00 0.00 63 1013.6
20260504212025 80 184 5.0 12.0 0.00 0.00 0.00 62 1013.7